Regional Weather Roundup
Issued by NWS

Home | Current Version | Previous Version | Text Only | Print | Product List | Glossary On
Versions: 1 2 3 4 5 6 7 8 9 10 11 12 13 14 15 16 17 18 19 20 21 22 23 24 25 26 27
000
ASUS44 KJAN 241010
RWRMS

MISSISSIPPI HOURLY WEATHER ROUNDUP
NATIONAL WEATHER SERVICE JACKSON MS
500 AM CDT WED MAY 24 2017

NOTE: "FAIR: INDICATES FEW OR NO CLOUDS BELOW 12,000 FEET WITH NO
SIGNIFICANT WEATHER AND/OR OBSTRUCTIONS TO VISIBILITY.

MSZ001>002-007>008-010>013-018>021-025>028-034>036-241100-
NORTHWEST MISSISSIPPI

CITY           SKY/WX    TMP DP  RH WIND       PRES   REMARKS
CLARKSDALE       N/A     59  59 100 MISG      29.63R FOG
CLEVELAND      DRIZZLE   59  59 100 N13G24    29.60F
GREENWOOD      LGT RAIN  61  59  93 NW9G24    29.59R
GREENVILLE     LGT RAIN  59  56  89 NW13      29.62F
OXFORD         RAIN      57  57 100 W6        29.59R
TUNICA         LGT RAIN  55  54  94 NW12      29.61F
WINONA         LGT RAIN  60  60 100 S13       29.56F
$$

MSZ003>006-009-014>017-022>024-029>033-037>039-241100-
NORTHEAST MISSISSIPPI

CITY           SKY/WX    TMP DP  RH WIND       PRES   REMARKS
COLUMBUS AFB   LGT RAIN  63  63 100 SW6       29.57F
CORINTH        DRIZZLE   61  59  94 NW6       29.53F
GOLDN TRIANGLE CLOUDY    63  55  77 CALM      29.53F
STARKVILLE     LGT RAIN  61  59  94 SW5       29.59F
TUPELO         LGT RAIN  62  60  93 SW6       29.54F
$$

MSZ040-058-241100-
CENTRAL MISSISSIPPI

CITY           SKY/WX    TMP DP  RH WIND       PRES   REMARKS
JACKSON INTL   CLOUDY    62  59  90 W12       29.65F
JACKSON HAWKNS CLOUDY    61  58  90 W12G25    29.65F
MADISON        CLOUDY    61  59  94 CALM      29.63F
MERIDIAN KEY   CLOUDY    67  65  93 SW6       29.60F
MERIDIAN NAS   CLOUDY    67  62  84 W5        29.60F
VICKSBURG VKS  PTSUNNY   61  57  88 W7        29.66S
$$

MSZ059>079-241100-
SOUTH MISSISSIPPI

CITY           SKY/WX    TMP DP  RH WIND       PRES   REMARKS
COLUMBIA       CLOUDY    66  63  88 W5G12     29.70F
HATTIESBURG    CLOUDY    67  64  90 W8        29.66R
LAUREL         CLOUDY    65  65 100 W6        29.65S
MCCOMB         CLOUDY    63  59  87 NW8       29.70S
NATCHEZ        CLOUDY    59  56  89 NW7       29.73S
PINE BELT      NOT AVBL
$$

MSZ080>082-241100-
COASTAL MISSISSIPPI

CITY           SKY/WX    TMP DP  RH WIND       PRES   REMARKS
BILOXI         CLOUDY    71  66  85 NW3       29.63F
PASCAGOULA     CLOUDY    69  66  90 W3        29.64F
GULFPORT       PTCLDY    69  67  93 NW6       29.63F
$$

LAZ007>009-015>016-023>026-241100-
NORTHEAST LOUISIANA

CITY           SKY/WX    TMP DP  RH WIND       PRES   REMARKS
BASTROP        CLOUDY    57  56  99 SW6       29.69F
TALLULAH/VBURG MOCLDY    59  57  93 VRB3      29.69R
VIDALIA        PTSUNNY   59  57  92 W7        29.72F
$$




USA.gov is the U.S. government's official web portal to all federal, state and local government web resources and services.